When you browse on this site, cookies collect data to enhance your experience and personalize the content and advertising you see.
Visit our Privacy Policy to learn more. By continuing to use the site, you agree to this use of cookies and data.
  • In Hungary
  • List of Countries
  • For 7 days
  • Water Temperature
  • Weather Map
  • News
  • Weather Widgets
  • user-avatar
    Login

    Hourly Weather Podtybok

    Today, 16 September, Monday

    Time Temperature Precipitation Wind Pressure Humidity
    00:00 +7°C° 0 mm 4 mps 739 mmHg 81%
    01:00 +6°C° 0 mm 4 mps 739 mmHg 81%
    02:00 +6°C° 0 mm 4 mps 739 mmHg 80%
    03:00 +6°C° 0 mm 4 mps 738 mmHg 80%
    04:00 +6°C° 0 mm 4 mps 738 mmHg 80%
    05:00 +5°C° 0 mm 4 mps 738 mmHg 81%
    06:00 +5°C° 0 mm 4 mps 738 mmHg 82%
    07:00 +5°C° 0 mm 4 mps 738 mmHg 83%
    08:00 +6°C° 0 mm 4 mps 738 mmHg 77%
    09:00 +7°C° 0 mm 4 mps 738 mmHg 71%
    10:00 +8°C° 0 mm 4 mps 737 mmHg 65%
    11:00 +10°C° 0 mm 4 mps 737 mmHg 61%
    12:00 +10°C° 0 mm 4 mps 736 mmHg 57%
    13:00 +11°C° 0 mm 4 mps 736 mmHg 53%
    14:00 +11°C° 0 mm 4 mps 736 mmHg 55%
    15:00 +11°C° 0 mm 4 mps 735 mmHg 57%
    16:00 +11°C° 0 mm 4 mps 735 mmHg 59%
    17:00 +10°C° 0.1 mm 4 mps 735 mmHg 66%
    18:00 +9°C° 0.1 mm 3 mps 734 mmHg 73%
    19:00 +8°C° 0.1 mm 3 mps 734 mmHg 80%
    20:00 +8°C° 0 mm 3 mps 733 mmHg 81%
    21:00 +8°C° 0 mm 3 mps 733 mmHg 83%
    22:00 +8°C° 0 mm 3 mps 732 mmHg 84%
    23:00 +8°C° 0.1 mm 3 mps 732 mmHg 87%

    Tomorrow, 17 September, Tuesday

    Time Temperature Precipitation Wind Pressure Humidity
    00:00 +7°C° 0.1 mm 2 mps 731 mmHg 89%
    01:00 +7°C° 0.1 mm 2 mps 731 mmHg 92%
    02:00 +7°C° 0.4 mm 2 mps 731 mmHg 94%
    03:00 +7°C° 0.4 mm 2 mps 731 mmHg 95%
    04:00 +7°C° 0.4 mm 2 mps 731 mmHg 97%
    05:00 +7°C° 0 mm 2 mps 730 mmHg 96%
    06:00 +7°C° 0 mm 2 mps 730 mmHg 96%
    07:00 +7°C° 0 mm 2 mps 730 mmHg 96%
    08:00 +7°C° 0.1 mm 2 mps 731 mmHg 95%
    09:00 +8°C° 0.1 mm 2 mps 731 mmHg 94%
    10:00 +8°C° 0.1 mm 3 mps 731 mmHg 94%
    11:00 +8°C° 0 mm 3 mps 731 mmHg 92%
    12:00 +8°C° 0 mm 3 mps 732 mmHg 90%
    13:00 +9°C° 0 mm 3 mps 732 mmHg 89%
    14:00 +9°C° 0.1 mm 2 mps 732 mmHg 86%
    15:00 +9°C° 0.1 mm 2 mps 732 mmHg 84%
    16:00 +10°C° 0.1 mm 2 mps 732 mmHg 82%
    17:00 +9°C° 0.3 mm 2 mps 732 mmHg 86%
    18:00 +8°C° 0.3 mm 2 mps 732 mmHg 90%
    19:00 +8°C° 0.3 mm 2 mps 732 mmHg 94%
    20:00 +7°C° 0.2 mm 2 mps 732 mmHg 94%
    21:00 +7°C° 0.2 mm 2 mps 732 mmHg 95%
    22:00 +7°C° 0.2 mm 2 mps 732 mmHg 96%
    23:00 +7°C° 0.2 mm 2 mps 732 mmHg 96%

    Day after tomorrow, 18 September, Wednesday

    Time Temperature Precipitation Wind Pressure Humidity
    00:00 +7°C° 0.2 mm 2 mps 732 mmHg 96%
    01:00 +7°C° 0.2 mm 2 mps 732 mmHg 97%
    02:00 +7°C° 0.4 mm 2 mps 732 mmHg 97%
    03:00 +7°C° 0.4 mm 2 mps 732 mmHg 97%
    04:00 +7°C° 0.4 mm 2 mps 732 mmHg 97%
    05:00 +7°C° 0.5 mm 2 mps 732 mmHg 97%
    06:00 +7°C° 0.5 mm 2 mps 732 mmHg 97%
    07:00 +7°C° 0.5 mm 2 mps 732 mmHg 96%
    08:00 +7°C° 0.5 mm 2 mps 732 mmHg 95%
    09:00 +8°C° 0.5 mm 2 mps 732 mmHg 94%
    10:00 +8°C° 0.5 mm 2 mps 733 mmHg 93%
    11:00 +8°C° 0.4 mm 2 mps 733 mmHg 92%
    12:00 +9°C° 0.4 mm 2 mps 733 mmHg 90%
    13:00 +9°C° 0.4 mm 2 mps 733 mmHg 89%
    14:00 +9°C° 0.4 mm 2 mps 734 mmHg 88%
    15:00 +10°C° 0.4 mm 2 mps 734 mmHg 86%
    16:00 +10°C° 0.4 mm 2 mps 734 mmHg 84%
    17:00 +10°C° 0.3 mm 1 mps 734 mmHg 87%
    18:00 +9°C° 0.3 mm 1 mps 734 mmHg 91%
    19:00 +8°C° 0.3 mm 1 mps 734 mmHg 94%
    20:00 +7°C° 0 mm 1 mps 735 mmHg 95%
    21:00 +7°C° 0 mm 1 mps 735 mmHg 96%
    22:00 +6°C° 0 mm 1 mps 735 mmHg 97%
    23:00 +6°C° 0 mm 1 mps 735 mmHg 97%

    19 September, Thursday

    Time Temperature Precipitation Wind Pressure Humidity
    00:00 +5°C° 0 mm 1 mps 735 mmHg 97%
    01:00 +5°C° 0 mm 1 mps 735 mmHg 98%
    02:00 +5°C° 0 mm 1 mps 735 mmHg 98%
    03:00 +4°C° 0 mm 2 mps 736 mmHg 98%
    04:00 +4°C° 0 mm 2 mps 736 mmHg 98%
    05:00 +4°C° 0 mm 2 mps 736 mmHg 97%
    06:00 +4°C° 0 mm 2 mps 736 mmHg 96%
    07:00 +4°C° 0 mm 2 mps 736 mmHg 96%
    08:00 +4°C° 0 mm 3 mps 736 mmHg 91%
    09:00 +5°C° 0 mm 3 mps 736 mmHg 87%
    10:00 +5°C° 0 mm 3 mps 736 mmHg 83%
    11:00 +7°C° 0 mm 3 mps 736 mmHg 76%
    12:00 +7°C° 0 mm 3 mps 737 mmHg 70%
    13:00 +8°C° 0 mm 3 mps 737 mmHg 64%
    14:00 +8°C° 0 mm 3 mps 737 mmHg 62%
    15:00 +8°C° 0 mm 3 mps 738 mmHg 59%
    16:00 +8°C° 0 mm 3 mps 738 mmHg 57%
    17:00 +7°C° 0 mm 3 mps 738 mmHg 63%
    18:00 +4°C° 0 mm 3 mps 738 mmHg 68%
    19:00 +4°C° 0 mm 2 mps 739 mmHg 73%
    20:00 +3°C° 0 mm 2 mps 739 mmHg 76%
    21:00 +3°C° 0 mm 2 mps 740 mmHg 80%
    22:00 +2°C° 0 mm 2 mps 740 mmHg 83%
    23:00 +2°C° 0 mm 2 mps 740 mmHg 85%

    20 September, Friday

    Time Temperature Precipitation Wind Pressure Humidity
    00:00 +1°C° 0 mm 2 mps 741 mmHg 88%
    01:00 +1°C° 0 mm 2 mps 741 mmHg 90%
    02:00 -1°C° 0 mm 2 mps 741 mmHg 90%
    03:00 -1°C° 0 mm 2 mps 742 mmHg 91%
    04:00 -1°C° 0 mm 2 mps 742 mmHg 92%
    05:00 -1°C° 0 mm 2 mps 742 mmHg 91%
    06:00 -1°C° 0 mm 2 mps 742 mmHg 91%
    07:00 -2°C° 0 mm 2 mps 742 mmHg 91%
    08:00 0°C° 0 mm 3 mps 743 mmHg 83%
    09:00 +2°C° 0 mm 3 mps 743 mmHg 75%
    10:00 +3°C° 0 mm 3 mps 743 mmHg 67%
    11:00 +4°C° 0 mm 3 mps 743 mmHg 63%
    12:00 +5°C° 0 mm 4 mps 744 mmHg 58%
    13:00 +6°C° 0 mm 4 mps 744 mmHg 54%
    14:00 +6°C° 0.1 mm 4 mps 744 mmHg 55%
    15:00 +6°C° 0.1 mm 4 mps 744 mmHg 56%
    16:00 +6°C° 0.1 mm 4 mps 744 mmHg 57%
    17:00 +4°C° 0 mm 3 mps 745 mmHg 65%
    18:00 +4°C° 0 mm 2 mps 745 mmHg 72%
    19:00 +2°C° 0 mm 2 mps 745 mmHg 80%
    20:00 +2°C° 0 mm 2 mps 745 mmHg 82%
    21:00 +1°C° 0 mm 2 mps 745 mmHg 84%
    22:00 +1°C° 0 mm 2 mps 746 mmHg 87%
    23:00 -1°C° 0 mm 2 mps 746 mmHg 88%

    21 September, Saturday

    Time Temperature Precipitation Wind Pressure Humidity
    00:00 -1°C° 0 mm 2 mps 746 mmHg 89%
    01:00 -2°C° 0 mm 2 mps 746 mmHg 91%
    02:00 -2°C° 0 mm 2 mps 746 mmHg 91%
    03:00 -2°C° 0 mm 2 mps 746 mmHg 91%
    04:00 -2°C° 0 mm 2 mps 746 mmHg 91%
    05:00 -2°C° 0 mm 2 mps 746 mmHg 90%
    06:00 0°C° 0 mm 1 mps 746 mmHg 89%
    07:00 0°C° 0 mm 1 mps 746 mmHg 88%
    08:00 +1°C° 0 mm 2 mps 746 mmHg 83%
    09:00 +2°C° 0 mm 2 mps 746 mmHg 77%
    10:00 +4°C° 0 mm 2 mps 747 mmHg 71%
    11:00 +4°C° 0.1 mm 2 mps 747 mmHg 70%
    12:00 +5°C° 0.1 mm 2 mps 747 mmHg 70%
    13:00 +5°C° 0.1 mm 2 mps 747 mmHg 69%
    14:00 +5°C° 0.1 mm 2 mps 747 mmHg 69%
    15:00 +5°C° 0.1 mm 2 mps 747 mmHg 68%
    16:00 +5°C° 0.1 mm 2 mps 747 mmHg 68%
    17:00 +4°C° 0 mm 1 mps 747 mmHg 74%
    18:00 +3°C° 0 mm 1 mps 747 mmHg 81%
    19:00 0°C° 0 mm 0 mps 747 mmHg 87%
    20:00 0°C° 0 mm 0 mps 747 mmHg 89%
    21:00 -1°C° 0 mm 0 mps 747 mmHg 91%
    22:00 -1°C° 0 mm 0 mps 746 mmHg 93%
    23:00 0°C° 0 mm 1 mps 746 mmHg 93%
    Show more